Location: Newark
(3.0500°N, 36.0167°E)
Time: 05:27:38
(UTC+00:00)

A-11 Canister half - Pass Details

Date: 27 August 2019
Orbit: 1527 x 1682 km, 47.3° (Epoch: 13 September)

Event Time Altitude Azimuth Distance (km) Brightness Sun altitude
Rises 15:20:39 0° 337° (NNW) 4,918 12.2 4.7°
Reaches altitude 10° 15:24:17 10° 346° (NNW) 3,922 11.5 3.8°
Maximum altitude 15:33:06 34° 47° (NE) 2,466 9.9 1.6°
Drops below altitude 10° 15:41:41 10° 109° (ESE) 3,841 10.5 -0.5°
Sets 15:45:09 0° 118° (ESE) 4,805 11.0 -1.3°
